When you browse on this site, cookies collect data to enhance your experience and personalize the content and advertising you see.
Visit our Privacy Policy to learn more. By continuing to use the site, you agree to this use of cookies and data.
  • In Slovakia
  • List of Countries
  • For 7 days
  • Water Temperature
  • Satellite Maps
  • Weather Map
  • Weather Widgets
  • user-avatar
    Login

    Hourly Weather Wurzburg

    Today, 16 January, Wednesday

    Time Temperature Precipitation Wind Pressure Humidity
    00:00 +2°C° 0 mm 5 mps 746 mmHg 87%
    01:00 +3°C° 0 mm 4 mps 746 mmHg 88%
    02:00 +1°C° 0 mm 4 mps 746 mmHg 89%
    03:00 +1°C° 0 mm 5 mps 745 mmHg 90%
    04:00 0°C° 0 mm 5 mps 745 mmHg 91%
    05:00 0°C° 0 mm 4 mps 745 mmHg 92%
    06:00 -1°C° 0 mm 4 mps 744 mmHg 92%
    07:00 0°C° 0 mm 4 mps 744 mmHg 94%
    08:00 0°C° 0 mm 4 mps 744 mmHg 91%
    09:00 0°C° 0 mm 4 mps 744 mmHg 89%
    10:00 0°C° 0 mm 4 mps 743 mmHg 86%
    11:00 +1°C° 0 mm 4 mps 743 mmHg 82%
    12:00 +3°C° 0 mm 4 mps 743 mmHg 77%
    13:00 +4°C° 0 mm 4 mps 742 mmHg 76%
    14:00 +4°C° 0 mm 3 mps 741 mmHg 76%
    15:00 +3°C° 0 mm 3 mps 741 mmHg 77%
    16:00 +3°C° 0 mm 3 mps 740 mmHg 78%
    17:00 +2°C° 0 mm 3 mps 739 mmHg 80%
    18:00 +2°C° 0 mm 3 mps 739 mmHg 81%
    19:00 +1°C° 0 mm 3 mps 739 mmHg 83%
    20:00 +1°C° 0 mm 3 mps 738 mmHg 82%
    21:00 +1°C° 0 mm 3 mps 738 mmHg 81%
    22:00 0°C° 0 mm 4 mps 738 mmHg 79%
    23:00 0°C° 0 mm 4 mps 737 mmHg 79%

    Tomorrow, 17 January, Thursday

    Time Temperature Precipitation Wind Pressure Humidity
    00:00 +1°C° 0 mm 5 mps 737 mmHg 78%
    01:00 +1°C° 0 mm 6 mps 737 mmHg 77%
    02:00 +1°C° 0 mm 6 mps 737 mmHg 79%
    03:00 +2°C° 0 mm 6 mps 736 mmHg 81%
    04:00 +2°C° 0 mm 7 mps 736 mmHg 83%
    05:00 +2°C° 0.1 mm 7 mps 736 mmHg 84%
    06:00 +2°C° 0.1 mm 7 mps 736 mmHg 84%
    07:00 +3°C° 0.1 mm 7 mps 736 mmHg 85%
    08:00 +3°C° 0.2 mm 6 mps 736 mmHg 86%
    09:00 +3°C° 0.2 mm 6 mps 736 mmHg 86%
    10:00 +3°C° 0.2 mm 5 mps 736 mmHg 87%
    11:00 +4°C° 0.1 mm 6 mps 736 mmHg 85%
    12:00 +4°C° 0.1 mm 6 mps 736 mmHg 82%
    13:00 +5°C° 0.1 mm 6 mps 736 mmHg 79%
    14:00 +4°C° 0.1 mm 7 mps 736 mmHg 77%
    15:00 +4°C° 0.1 mm 7 mps 736 mmHg 75%
    16:00 +4°C° 0.1 mm 7 mps 736 mmHg 72%
    17:00 +3°C° 0.4 mm 7 mps 737 mmHg 75%
    18:00 +3°C° 0.4 mm 7 mps 738 mmHg 77%
    19:00 +2°C° 0.4 mm 7 mps 738 mmHg 79%
    20:00 +1°C° 0.1 mm 6 mps 739 mmHg 79%
    21:00 +1°C° 0.1 mm 5 mps 740 mmHg 79%
    22:00 0°C° 0.1 mm 4 mps 741 mmHg 78%
    23:00 -1°C° 0 mm 4 mps 741 mmHg 78%

    Day after tomorrow, 18 January, Friday

    Time Temperature Precipitation Wind Pressure Humidity
    00:00 -1°C° 0 mm 5 mps 742 mmHg 78%
    01:00 -2°C° 0 mm 5 mps 743 mmHg 78%
    02:00 -2°C° 0 mm 5 mps 743 mmHg 78%
    03:00 -2°C° 0 mm 5 mps 743 mmHg 78%
    04:00 -2°C° 0 mm 4 mps 744 mmHg 77%
    05:00 -2°C° 0 mm 4 mps 744 mmHg 79%
    06:00 -1°C° 0 mm 3 mps 745 mmHg 80%
    07:00 -2°C° 0 mm 3 mps 746 mmHg 81%
    08:00 -1°C° 0 mm 2 mps 746 mmHg 79%
    09:00 -1°C° 0 mm 2 mps 747 mmHg 77%
    10:00 +2°C° 0 mm 1 mps 747 mmHg 75%
    11:00 +2°C° 0 mm 1 mps 748 mmHg 68%
    12:00 +3°C° 0 mm 1 mps 748 mmHg 61%
    13:00 +3°C° 0 mm 0 mps 748 mmHg 55%
    14:00 +2°C° 0 mm 0 mps 747 mmHg 57%
    15:00 +2°C° 0 mm 0 mps 747 mmHg 58%
    16:00 +2°C° 0 mm 0 mps 747 mmHg 60%
    17:00 +2°C° 0 mm 1 mps 747 mmHg 63%
    18:00 +2°C° 0 mm 1 mps 747 mmHg 65%
    19:00 +1°C° 0 mm 1 mps 747 mmHg 68%
    20:00 +1°C° 0 mm 1 mps 747 mmHg 69%
    21:00 +1°C° 0 mm 1 mps 747 mmHg 70%
    22:00 0°C° 0 mm 1 mps 747 mmHg 71%
    23:00 0°C° 0 mm 1 mps 747 mmHg 73%

    19 January, Saturday

    Time Temperature Precipitation Wind Pressure Humidity
    00:00 -2°C° 0 mm 2 mps 747 mmHg 74%
    01:00 -2°C° 0 mm 2 mps 747 mmHg 75%
    02:00 -2°C° 0 mm 2 mps 747 mmHg 76%
    03:00 -3°C° 0 mm 2 mps 746 mmHg 76%
    04:00 -3°C° 0 mm 2 mps 746 mmHg 77%
    05:00 -3°C° 0 mm 2 mps 746 mmHg 77%
    06:00 -3°C° 0 mm 2 mps 746 mmHg 77%
    07:00 -3°C° 0 mm 2 mps 746 mmHg 77%
    08:00 -3°C° 0 mm 2 mps 745 mmHg 74%
    09:00 -2°C° 0 mm 2 mps 745 mmHg 70%
    10:00 -2°C° 0 mm 3 mps 745 mmHg 66%
    11:00 -1°C° 0 mm 3 mps 745 mmHg 61%
    12:00 0°C° 0 mm 3 mps 744 mmHg 56%
    13:00 0°C° 0 mm 3 mps 744 mmHg 51%
    14:00 +1°C° 0 mm 2 mps 744 mmHg 53%
    15:00 +1°C° 0 mm 2 mps 743 mmHg 55%
    16:00 +1°C° 0 mm 2 mps 743 mmHg 57%
    17:00 -1°C° 0 mm 2 mps 743 mmHg 60%
    18:00 -2°C° 0 mm 2 mps 743 mmHg 64%
    19:00 -2°C° 0 mm 2 mps 743 mmHg 67%
    20:00 -3°C° 0 mm 2 mps 743 mmHg 69%
    21:00 -3°C° 0 mm 2 mps 743 mmHg 72%
    22:00 -3°C° 0 mm 2 mps 743 mmHg 74%
    23:00 -3°C° 0 mm 2 mps 743 mmHg 76%

    20 January, Sunday

    Time Temperature Precipitation Wind Pressure Humidity
    00:00 -3°C° 0 mm 2 mps 743 mmHg 77%
    01:00 -3°C° 0 mm 2 mps 743 mmHg 79%
    02:00 -3°C° 0 mm 2 mps 742 mmHg 79%
    03:00 -3°C° 0 mm 2 mps 742 mmHg 80%
    04:00 -3°C° 0 mm 2 mps 742 mmHg 81%
    05:00 -3°C° 0 mm 2 mps 742 mmHg 82%
    06:00 -3°C° 0 mm 2 mps 742 mmHg 83%
    07:00 -3°C° 0 mm 2 mps 743 mmHg 84%
    08:00 -3°C° 0 mm 2 mps 743 mmHg 81%
    09:00 -2°C° 0 mm 2 mps 743 mmHg 79%
    10:00 -2°C° 0 mm 2 mps 744 mmHg 77%
    11:00 -1°C° 0 mm 2 mps 744 mmHg 73%
    12:00 +1°C° 0 mm 2 mps 744 mmHg 70%
    13:00 +2°C° 0 mm 2 mps 744 mmHg 66%
    14:00 +1°C° 0 mm 2 mps 744 mmHg 68%
    15:00 +1°C° 0 mm 2 mps 744 mmHg 70%
    16:00 +1°C° 0 mm 2 mps 744 mmHg 72%
    17:00 -1°C° 0 mm 2 mps 745 mmHg 74%
    18:00 +1°C° 0 mm 1 mps 745 mmHg 77%
    19:00 0°C° 0 mm 1 mps 746 mmHg 79%
    20:00 -2°C° 0 mm 2 mps 746 mmHg 81%
    21:00 -2°C° 0 mm 2 mps 747 mmHg 82%
    22:00 -2°C° 0 mm 2 mps 747 mmHg 83%
    23:00 -3°C° 0 mm 2 mps 747 mmHg 84%

    21 January, Monday

    Time Temperature Precipitation Wind Pressure Humidity
    00:00 -3°C° 0 mm 2 mps 747 mmHg 86%
    01:00 -3°C° 0 mm 2 mps 748 mmHg 87%
    02:00 -3°C° 0 mm 2 mps 748 mmHg 86%
    03:00 -3°C° 0 mm 2 mps 748 mmHg 85%
    04:00 -4°C° 0 mm 2 mps 748 mmHg 84%
    05:00 -5°C° 0 mm 3 mps 748 mmHg 83%
    06:00 -5°C° 0 mm 3 mps 748 mmHg 82%
    07:00 -5°C° 0 mm 3 mps 749 mmHg 81%
    08:00 -4°C° 0 mm 3 mps 749 mmHg 78%
    09:00 -4°C° 0 mm 3 mps 749 mmHg 75%
    10:00 -4°C° 0 mm 4 mps 750 mmHg 72%
    11:00 -3°C° 0 mm 4 mps 750 mmHg 66%
    12:00 -2°C° 0 mm 4 mps 750 mmHg 60%
    13:00 -1°C° 0 mm 4 mps 749 mmHg 54%
    14:00 0°C° 0 mm 3 mps 749 mmHg 54%
    15:00 0°C° 0 mm 3 mps 749 mmHg 54%
    16:00 +1°C° 0 mm 2 mps 749 mmHg 54%
    17:00 -1°C° 0 mm 2 mps 749 mmHg 59%
    18:00 -2°C° 0 mm 2 mps 749 mmHg 63%
    19:00 -4°C° 0 mm 3 mps 749 mmHg 68%
    20:00 -3°C° 0 mm 2 mps 749 mmHg 70%
    21:00 -3°C° 0 mm 2 mps 749 mmHg 72%
    22:00 -4°C° 0 mm 2 mps 748 mmHg 74%
    23:00 -4°C° 0 mm 2 mps 748 mmHg 74%
    Show more